Wind_Speed
1 1 2 3 4 5 6 7 9 10 10 10 10 11 11 11 11 11 11 11 11 12 12 12 12 12 13 13 14 15 15 16 16 17 18 18 18 19 19 20 20 20 21 21 21 21 21 21 21
0 1 2 4 4 6 6 7 8 9 10 10 10 10 11 11 11 11 11 11 11 11 12 12 12 13 13 14 15 15 15 16 17 18 18 19 19 20 20 20 21 21 21 21 21 21 21 21 21
2 2 3 4 5 6 7 8 8 8 9 10 10 10 11 11 11 11 11 11 11 11 12 12 13 14 14 15 15 16 16 17 18 19 19 19 20 20 21 21 21 21 21 21 21 21 21 21 21
4 3 4 4 5 6 7 8 8 8 9 9 9 10 11 11 12 12 12 12 12 12 12 13 13 14 14 15 16 17 18 18 19 19 20 21 21 21 21 21 21 21 21 21 21 21 21 21 21
7 6 5 5 6 6 7 7 8 8 9 9 9 10 10 11 12 12 12 12 13 13 13 13 14 15 16 16 17 18 19 19 19 20 20 20 21 21 21 21 21 21 21 21 21 22 22 22 22
10 9 8 8 7 7 7 8 9 9 9 9 9 10 10 11 12 12 13 13 13 14 14 15 16 16 17 18 18 19 19 19 20 20 20 21 21 21 21 21 21 22 22 22 22 23 23 23 23
14 12 12 11 10 9 9 9 10 11 11 10 11 11 11 11 11 12 13 14 15 15 16 16 16 17 17 18 18 18 19 19 19 20 20 21 21 21 22 22 22 23 23 23 24 24 24 24 25
18 16 15 14 13 12 12 11 11 11 12 12 12 12 12 12 12 13 14 14 14 15 16 16 16 16 16 17 17 18 19 19 20 21 21 22 22 23 23 24 24 24 24 25 25 25 25 26 26
22 20 19 18 16 15 14 14 13 13 13 13 13 14 13 14 14 14 14 14 14 14 15 15 15 16 17 17 18 19 20 21 22 22 23 23 24 25 25 25 25 25 25 26 26 26 26 26 27
25 23 22 22 20 19 17 17 16 15 15 15 15 15 15 15 15 15 15 15 15 15 16 16 17 17 18 19 20 21 21 22 23 24 24 25 25 25 26 25 26 26 26 26 26 26 26 26 27
29 27 26 25 24 22 21 20 19 18 18 18 17 17 17 17 17 17 17 17 17 17 17 18 18 19 20 21 21 22 23 24 25 25 25 26 26 26 26 26 27 27 27 27 27 27 27 27 27
32 31 30 29 27 26 25 23 22 21 21 21 20 20 19 19 19 19 19 19 19 20 20 20 21 21 22 23 24 24 25 26 26 26 27 27 27 27 27 27 27 27 27 27 27 28 28 28 28
35 33 33 32 31 29 28 27 25 24 25 24 23 22 22 22 22 22 22 22 23 23 23 23 23 24 25 25 26 26 27 27 27 28 29 29 29 29 29 28 28 28 28 28 28 28 28 28 29
37 36 36 35 34 33 31 30 29 28 29 27 26 26 25 25 25 25 25 25 25 25 25 26 26 26 26 27 27 28 28 29 29 30 30 30 30 30 29 29 29 29 29 29 29 29 29 29 29
39 38 38 37 37 36 35 33 32 32 32 31 30 29 29 28 28 28 28 28 28 28 28 28 28 28 28 29 29 29 30 30 30 31 31 31 31 31 30 30 30 30 30 30 30 30 30 30 30
40 40 39 39 39 39 38 36 36 36 35 34 33 33 32 31 31 31 31 31 31 30 30 31 31 30 30 30 31 31 31 31 31 31 32 32 32 32 31 31 31 30 30 30 31 31 31 31 32
40 40 39 40 41 41 41 39 38 39 38 37 36 35 35 34 34 34 34 33 33 33 33 33 33 33 32 33 33 33 32 32 32 32 32 33 33 32 32 32 32 31 31 31 31 32 33 33 34
39 40 40 40 42 43 43 41 40 41 41 39 38 37 37 36 37 37 36 35 35 35 35 35 35 35 34 34 34 34 33 33 33 32 33 33 33 33 33 33 32 32 32 32 33 33 34 35 36
41 42 41 40 42 43 43 42 40 41 42 41 40 39 39 39 39 39 38 37 37 36 36 36 36 36 36 36 35 35 34 34 33 33 34 34 34 34 33 33 33 33 33 34 34 35 36 37 37
42 42 41 41 43 45 44 43 40 40 41 42 41 41 41 41 41 41 40 39 38 38 37 37 37 37 37 37 36 36 35 35 34 34 34 34 34 34 34 34 34 34 34 35 36 37 38 38 39
41 40 40 40 42 45 46 44 40 38 39 40 41 42 42 42 41 41 41 41 40 39 38 38 37 37 37 36 36 36 35 35 35 35 35 35 34 34 34 35 35 36 36 37 38 39 40 40 41
40 39 40 41 42 44 45 46 40 38 38 39 41 42 41 41 42 42 42 42 41 41 40 38 38 37 37 37 36 36 36 36 36 36 36 35 35 35 35 36 37 37 38 39 40 41 42 43 43
39 39 39 40 42 43 43 46 41 37 36 37 40 42 42 41 41 41 41 41 41 40 39 39 38 37 37 36 36 36 37 37 36 35 35 36 36 36 36 37 38 38 39 41 42 43 44 44 45
38 38 39 40 41 43 40 42 41 35 34 35 37 39 40 41 40 40 40 40 40 39 38 37 37 37 36 36 36 36 36 36 35 35 35 36 36 37 38 38 39 40 41 43 44 44 45 46 47
38 37 38 40 41 42 39 40 39 35 33 33 34 36 38 39 39 39 39 39 38 37 37 37 36 36 36 36 36 36 36 36 36 36 36 37 37 38 39 40 41 42 43 44 45 46 47 48 48
36 37 38 39 40 40 39 38 34 32 31 32 33 34 36 37 38 38 38 37 37 37 36 36 36 35 35 35 35 35 35 36 36 36 37 38 39 39 40 41 42 43 44 45 46 47 48 49 49
37 37 36 38 40 40 39 35 30 28 31 32 32 32 33 34 35 35 36 35 35 35 35 35 35 34 34 35 35 34 35 35 36 37 39 39 40 40 41 42 43 44 46 47 48 49 49 49 50
37 36 37 39 40 40 38 33 28 27 28 29 30 30 30 31 32 33 34 34 34 33 33 34 34 34 34 34 34 35 35 36 37 38 39 40 40 41 42 44 45 46 47 48 48 49 50 50 50
37 37 37 38 39 39 37 33 27 26 26 27 28 29 29 29 30 30 31 32 32 32 32 33 33 33 33 33 34 34 35 37 38 38 39 40 41 42 44 45 46 47 48 49 49 50 50 50 51
39 38 37 38 37 36 36 34 28 26 27 28 29 29 29 29 29 29 29 29 30 30 31 31 32 32 33 34 35 36 36 37 37 38 39 41 43 44 45 46 47 47 48 49 50 50 50 51 51
Wind_Direction
42 98 130 148 159 169 174 181 188 191 195 201 206 209 210 214 219 224 227 231 235 238 242 244 248 253 258 262 266 270 273 275 278 280 282 284 285 286 287 288 289 289 289 289 289 289 289 289 288
233 146 154 156 160 171 178 182 188 191 193 199 204 209 212 216 220 223 228 234 237 240 243 247 252 258 263 267 271 274 277 279 282 284 285 286 287 288 289 290 291 292 292 291 290 290 290 290 289
228 183 169 170 171 177 184 186 188 192 196 201 204 209 213 216 221 225 230 235 239 243 247 251 257 261 265 269 273 276 279 281 284 286 286 287 289 290 290 292 292 293 293 293 292 292 292 291 291
228 207 195 189 188 188 191 191 192 195 199 202 207 211 211 215 221 225 231 237 242 247 251 255 259 262 266 270 274 278 281 283 284 285 285 287 288 289 290 291 291 291 291 292 292 292 292 292 292
229 221 210 205 204 200 198 198 198 200 202 204 209 214 217 221 224 228 233 238 243 247 251 256 261 265 270 273 275 278 280 282 283 284 285 286 287 288 289 289 290 291 291 291 291 291 291 291 291
231 227 220 217 215 209 204 203 203 207 211 212 214 219 222 226 230 234 238 241 246 250 254 259 263 267 270 272 274 276 279 282 283 284 285 286 286 286 287 288 289 290 291 291 291 291 291 291 290
231 229 226 223 222 218 212 211 211 214 218 220 222 225 227 232 237 241 244 246 250 254 258 262 265 268 270 272 274 276 279 280 282 284 285 286 286 286 287 288 288 289 290 290 290 290 289 289 289
232 231 230 228 226 225 222 220 219 221 224 228 230 232 234 238 243 247 250 253 255 258 261 264 267 269 271 273 276 278 280 282 283 285 286 286 286 286 287 287 288 288 288 288 288 288 289 289 289
233 232 231 231 229 228 228 227 226 228 230 231 234 237 239 242 246 250 252 255 258 261 263 265 267 270 272 274 277 280 282 283 284 285 286 287 287 287 286 287 287 288 288 288 288 288 288 288 288
233 232 232 233 232 231 231 232 232 232 234 235 237 239 242 245 248 252 254 256 259 262 264 267 270 272 274 276 279 281 282 284 285 285 286 287 287 287 287 287 288 288 288 288 288 288 288 288 288
234 233 233 234 234 233 233 234 235 236 237 238 239 242 245 248 251 254 257 259 261 264 266 269 271 273 276 278 280 282 283 284 284 285 285 286 286 286 286 287 288 288 288 288 288 288 288 288 288
236 235 235 235 235 235 235 236 237 238 239 241 241 242 245 249 253 256 259 261 263 265 267 270 272 274 276 279 280 282 284 284 284 285 285 285 286 286 286 286 287 288 288 288 287 288 288 288 288
237 237 237 237 236 237 237 238 239 241 242 242 242 244 246 249 253 257 260 263 264 267 268 270 272 274 277 279 280 281 283 283 283 283 284 285 285 285 286 286 286 287 288 287 287 287 287 288 288
238 238 239 239 239 238 239 240 241 242 244 245 245 246 248 250 254 258 261 263 265 268 270 271 272 274 277 278 279 281 282 283 283 283 284 284 285 285 285 285 286 286 287 287 287 288 288 288 288
239 239 240 241 241 241 241 241 243 244 246 247 248 249 250 252 255 258 261 264 266 268 270 272 273 274 276 278 280 281 282 282 282 282 283 284 284 284 284 284 285 286 287 287 287 288 288 289 289
240 240 241 242 243 243 243 243 245 246 248 250 250 251 252 254 256 259 261 263 266 268 270 272 273 274 275 277 279 281 282 282 281 282 282 283 283 283 283 284 285 286 286 286 287 288 289 290 290
241 242 242 243 244 245 245 244 246 248 249 251 252 252 253 255 257 259 261 263 265 267 269 272 273 274 275 276 279 280 282 281 281 281 281 281 282 282 283 283 284 285 286 287 288 289 290 291 291
242 243 242 244 246 247 247 246 246 249 250 251 252 253 254 256 258 260 261 263 264 266 269 271 272 274 275 277 278 279 280 281 280 280 281 281 281 282 283 283 284 285 286 287 288 289 290 291 292
242 243 243 244 247 248 249 249 248 250 252 253 254 255 255 256 258 260 261 263 264 266 268 271 272 273 274 276 277 278 279 279 279 280 280 280 281 282 283 284 285 285 286 288 289 290 291 292 293
242 243 244 245 248 250 250 250 250 251 254 255 256 257 257 257 259 261 263 264 265 267 269 270 271 272 273 274 276 277 278 278 279 279 279 280 280 281 282 283 285 286 287 289 290 291 292 292 293
243 245 246 247 248 251 253 252 252 253 255 257 258 258 258 259 261 262 263 264 266 267 269 270 271 271 272 272 274 275 276 277 278 278 279 280 280 281 283 284 285 286 288 289 290 291 292 293 293
243 245 247 249 249 251 254 255 250 254 257 259 259 259 260 260 261 262 263 264 265 266 268 269 270 270 270 271 272 273 275 276 277 278 279 280 280 281 283 284 286 286 288 289 291 292 292 293 294
244 245 248 250 252 253 254 259 255 254 256 259 261 262 262 262 262 262 263 263 264 266 267 267 268 268 268 269 271 273 274 276 276 277 278 279 280 281 283 284 286 287 288 290 291 293 293 294 294
242 245 248 251 253 254 255 260 260 259 259 258 260 262 263 263 263 263 263 263 264 265 265 265 265 266 267 268 270 271 273 274 275 276 278 279 281 282 283 284 286 287 289 291 292 293 293 294 294
242 245 249 251 254 257 258 260 263 264 263 261 259 260 262 263 263 263 263 263 263 263 264 264 264 265 266 267 269 270 271 273 275 276 278 279 281 282 284 286 287 289 291 292 292 293 293 294 295
242 244 248 253 256 259 259 259 261 264 266 265 263 261 262 263 263 263 263 263 263 263 263 264 263 264 265 266 268 269 271 273 274 276 278 280 282 284 286 287 289 290 291 292 293 293 294 294 295
239 243 248 253 256 259 261 261 260 266 268 268 267 265 263 263 263 263 262 262 263 263 263 263 263 264 265 266 266 268 270 273 275 277 279 281 282 285 286 287 289 290 291 292 293 294 294 294 295
238 241 244 249 255 260 262 263 266 266 268 269 269 268 265 263 262 262 263 263 263 263 263 263 264 264 264 265 266 268 271 274 276 278 280 281 283 285 287 288 289 291 292 293 294 294 295 295 296
238 241 244 249 254 260 264 266 265 268 269 269 269 268 266 264 263 263 263 264 264 264 264 264 263 263 264 265 267 270 272 275 276 278 279 281 284 286 288 289 291 292 293 294 294 295 296 296 296
237 239 243 248 254 258 262 266 268 269 269 269 268 267 267 266 264 264 264 264 264 263 263 263 263 263 264 266 268 270 272 274 276 278 280 283 285 287 289 290 291 293 294 294 295 296 296 297 297
Height
5869 5869 5869 5869 5870 5871 5870 5871 5871 5872 5873 5874 5875 5876 5878 5879 5881 5883 5882 5881 5882 5882 5883 5883 5884 5884 5884 5884 5884 5884 5883 5883 5883 5882 5882 5881 5880 5880 5879 5878 5877 5876 5875 5874 5873 5872 5871 5870 5869
5869 5869 5869 5869 5869 5870 5870 5870 5871 5871 5872 5873 5874 5875 5876 5877 5878 5879 5879 5880 5880 5881 5881 5881 5882 5882 5882 5882 5882 5881 5881 5881 5880 5880 5879 5878 5878 5877 5876 5875 5874 5873 5872 5870 5869 5868 5867 5866 5865
5869 5868 5869 5869 5869 5869 5869 5869 5870 5870 5871 5872 5873 5873 5875 5876 5876 5877 5878 5878 5879 5879 5879 5880 5880 5880 5880 5880 5880 5879 5879 5878 5878 5877 5877 5876 5875 5874 5873 5872 5871 5869 5868 5867 5866 5865 5864 5863 5861
5868 5868 5869 5869 5868 5868 5868 5868 5869 5869 5870 5871 5872 5872 5873 5874 5875 5875 5876 5876 5877 5877 5877 5877 5878 5878 5878 5877 5877 5877 5876 5876 5875 5874 5874 5873 5872 5871 5870 5869 5867 5866 5865 5864 5862 5861 5860 5859 5858
5867 5867 5868 5867 5867 5867 5867 5867 5868 5868 5869 5870 5870 5871 5872 5872 5873 5873 5874 5874 5875 5875 5875 5875 5875 5875 5875 5875 5874 5874 5873 5873 5872 5871 5870 5869 5868 5867 5866 5865 5864 5863 5861 5860 5859 5858 5856 5855 5854
5865 5866 5866 5866 5865 5866 5866 5866 5866 5867 5867 5868 5869 5869 5870 5871 5871 5872 5872 5872 5872 5872 5872 5873 5873 5872 5872 5872 5872 5871 5870 5870 5869 5868 5867 5866 5865 5864 5863 5862 5860 5859 5858 5856 5855 5853 5852 5851 5849
5863 5863 5863 5864 5864 5864 5864 5864 5865 5865 5866 5866 5867 5867 5868 5869 5869 5869 5870 5870 5870 5870 5870 5870 5870 5869 5869 5869 5868 5868 5867 5866 5865 5865 5864 5863 5861 5860 5859 5858 5856 5855 5854 5852 5851 5849 5848 5846 5845
5859 5861 5860 5861 5861 5862 5862 5862 5863 5863 5864 5864 5865 5865 5866 5866 5867 5867 5867 5867 5867 5867 5867 5867 5867 5866 5866 5865 5865 5864 5864 5863 5862 5861 5860 5859 5858 5856 5855 5854 5852 5851 5849 5848 5846 5844 5843 5841 5840
5854 5857 5857 5858 5858 5859 5859 5860 5860 5861 5861 5861 5862 5862 5863 5863 5863 5864 5864 5864 5864 5864 5864 5864 5863 5863 5862 5862 5861 5861 5860 5859 5858 5857 5856 5855 5853 5852 5850 5849 5847 5846 5844 5843 5841 5839 5838 5836 5834
5849 5852 5853 5853 5854 5855 5856 5857 5857 5858 5858 5858 5859 5859 5859 5860 5860 5860 5860 5861 5861 5861 5861 5860 5860 5859 5859 5858 5857 5857 5856 5855 5854 5853 5851 5850 5849 5847 5846 5844 5842 5841 5839 5838 5836 5834 5832 5831 5829
5843 5846 5847 5848 5849 5851 5852 5853 5853 5854 5854 5855 5855 5856 5856 5856 5856 5856 5857 5857 5857 5857 5857 5857 5856 5855 5855 5854 5853 5852 5851 5850 5849 5848 5847 5845 5844 5842 5840 5839 5837 5836 5834 5832 5830 5828 5827 5825 5823
5837 5839 5840 5842 5844 5845 5847 5848 5849 5850 5850 5851 5851 5852 5852 5852 5852 5852 5853 5853 5853 5853 5852 5852 5852 5851 5850 5850 5849 5848 5846 5845 5844 5843 5841 5840 5838 5837 5835 5833 5832 5830 5828 5826 5824 5822 5820 5819 5817
5829 5832 5834 5836 5838 5840 5841 5843 5844 5845 5845 5845 5847 5847 5848 5848 5848 5848 5848 5848 5848 5848 5847 5847 5847 5846 5846 5845 5843 5842 5841 5840 5838 5837 5836 5834 5833 5831 5829 5828 5826 5824 5822 5820 5818 5816 5814 5812 5810
5822 5824 5827 5829 5831 5833 5835 5836 5838 5840 5839 5840 5841 5842 5843 5843 5843 5843 5843 5843 5842 5842 5842 5842 5841 5841 5840 5839 5838 5837 5835 5834 5833 5831 5830 5828 5827 5825 5823 5822 5820 5818 5816 5814 5812 5810 5808 5806 5804
5814 5817 5819 5821 5823 5826 5828 5831 5832 5832 5833 5834 5835 5836 5837 5837 5837 5837 5837 5837 5836 5836 5836 5836 5835 5835 5834 5833 5832 5830 5829 5828 5826 5825 5823 5822 5820 5819 5817 5815 5813 5812 5810 5808 5806 5804 5802 5800 5797
5806 5809 5812 5814 5815 5817 5821 5824 5824 5825 5826 5827 5829 5830 5830 5831 5831 5831 5830 5830 5830 5830 5829 5829 5828 5828 5827 5826 5825 5824 5823 5821 5820 5818 5817 5815 5813 5812 5810 5809 5807 5805 5803 5801 5799 5797 5795 5792 5790
5798 5801 5804 5806 5807 5809 5811 5815 5816 5816 5818 5820 5821 5822 5823 5823 5823 5823 5823 5823 5823 5823 5822 5822 5821 5821 5820 5819 5818 5817 5815 5814 5813 5811 5810 5808 5806 5805 5803 5802 5800 5798 5796 5794 5792 5790 5787 5785 5783
5791 5793 5795 5797 5798 5800 5802 5806 5808 5808 5809 5812 5813 5814 5815 5815 5815 5815 5816 5816 5816 5816 5815 5814 5814 5813 5812 5811 5811 5809 5808 5807 5805 5804 5802 5801 5799 5798 5796 5794 5792 5790 5789 5787 5784 5782 5780 5777 5775
5780 5783 5786 5789 5789 5790 5793 5796 5800 5800 5801 5803 5804 5805 5806 5807 5807 5807 5808 5808 5808 5808 5807 5807 5806 5805 5805 5804 5803 5802 5801 5799 5798 5796 5795 5793 5792 5790 5789 5787 5785 5783 5781 5779 5777 5774 5772 5769 5766
5771 5774 5777 5780 5780 5781 5783 5787 5791 5792 5793 5794 5795 5796 5797 5798 5798 5799 5799 5799 5800 5800 5799 5799 5798 5797 5797 5796 5795 5794 5793 5791 5790 5789 5787 5786 5784 5782 5781 5779 5777 5775 5773 5771 5769 5766 5763 5761 5758
5763 5766 5769 5771 5771 5772 5774 5778 5783 5785 5784 5785 5786 5786 5787 5788 5789 5790 5790 5790 5790 5791 5790 5790 5789 5789 5788 5787 5787 5786 5784 5783 5782 5781 5779 5778 5776 5775 5773 5771 5769 5767 5765 5763 5760 5757 5754 5752 5748
5754 5758 5760 5761 5763 5764 5765 5766 5775 5776 5777 5776 5776 5776 5777 5779 5779 5780 5780 5780 5780 5781 5781 5781 5780 5780 5780 5779 5778 5777 5776 5775 5774 5773 5771 5770 5768 5767 5765 5763 5761 5759 5756 5754 5751 5748 5745 5741 5738
5746 5749 5751 5752 5753 5755 5757 5756 5764 5768 5768 5767 5767 5767 5767 5768 5769 5770 5770 5770 5770 5771 5771 5771 5771 5771 5770 5770 5769 5769 5768 5767 5765 5764 5763 5761 5760 5758 5756 5754 5752 5750 5747 5744 5741 5738 5735 5731 5728
5737 5740 5742 5743 5744 5746 5750 5749 5753 5758 5759 5759 5758 5757 5757 5758 5759 5760 5760 5761 5761 5761 5762 5762 5762 5762 5761 5761 5760 5760 5759 5758 5757 5756 5754 5753 5751 5750 5747 5745 5743 5740 5737 5734 5731 5728 5724 5721 5717
5730 5733 5734 5734 5736 5738 5741 5741 5745 5748 5748 5749 5749 5748 5748 5748 5749 5750 5751 5751 5752 5752 5752 5752 5752 5753 5752 5752 5752 5751 5750 5749 5748 5747 5746 5744 5743 5741 5738 5736 5733 5730 5727 5724 5721 5717 5713 5710 5706
5722 5724 5727 5728 5729 5730 5730 5733 5738 5738 5738 5738 5739 5739 5739 5739 5740 5741 5741 5742 5742 5743 5743 5743 5743 5743 5743 5743 5743 5742 5742 5741 5740 5738 5737 5735 5733 5731 5729 5726 5723 5720 5717 5713 5710 5706 5702 5698 5694
5713 5715 5719 5720 5719 5720 5721 5726 5730 5731 5729 5729 5729 5730 5730 5731 5731 5731 5732 5732 5733 5733 5734 5734 5734 5734 5734 5734 5734 5733 5733 5732 5731 5729 5727 5726 5724 5721 5719 5716 5713 5710 5706 5702 5698 5695 5691 5686 5682
5704 5707 5709 5710 5710 5711 5714 5718 5722 5722 5721 5720 5720 5720 5721 5722 5722 5723 5723 5723 5724 5724 5725 5725 5726 5726 5725 5725 5725 5724 5724 5723 5722 5720 5718 5716 5714 5711 5709 5706 5702 5699 5695 5691 5687 5683 5678 5674 5670
5696 5699 5701 5703 5704 5705 5706 5712 5713 5713 5713 5713 5712 5712 5712 5713 5714 5714 5715 5715 5715 5716 5716 5717 5717 5717 5717 5717 5716 5716 5715 5714 5712 5710 5708 5706 5704 5701 5698 5695 5692 5688 5684 5679 5675 5671 5666 5662 5657
5686 5690 5693 5695 5696 5697 5698 5704 5704 5705 5705 5704 5704 5704 5704 5705 5705 5706 5706 5707 5707 5707 5708 5708 5708 5708 5708 5708 5707 5707 5706 5704 5703 5701 5699 5696 5694 5691 5687 5684 5680 5676 5672 5668 5663 5659 5654 5649 5645